FREGAT DEB, 45840

Orbit data source: Space-Track

FREGAT DEB, 45840 is space debris in LEO originally from a launch on Mon, 18 Jul 2011 UTC launched from the Tyuratam Missile And Space Complex (TTMTR). Debris objects in space refer to the collection of defunct objects orbiting the Earth. Examples of debris include non-operational satellites, rocket bodies, and fragments generated from explosions, collisions, or faulty payload assembly.

Loading next visibility...
Identifier
45840, 2011-037CA
Orbit
LEO
Country
Flag of CISCIS
Related business
Manufacturer
Lavochkin
Mission
Spacecraft
Bus & Motor
Unknown
Mass
Unknown
Launch date (UTC)
2011-07-18 (14 years ago)
Launch vehicle
Unknown
Launch site
Tyuratam Missile And Space Complex (TTMTR)
Object type
Payload
Rocket body
Debris
Shape & HBR
Unknown shape, 0.1 m
Radar Cross Section
Small (<0.1 m²)

Expand to show TLE details & history
Last TLE update: 1 day ago

TLE from 1 day ago
0 FREGAT DEB
1 45840U 11037CA  25306.01079556  .00009785  00000-0  34388-2 0  9999
2 45840  51.5569 206.3819 1925438 163.0014 204.5749 11.09931420211241
Epoch: 2025-11-02T00:15Z
TLE epoch observation values (Epoch: 2025-11-02T00:15:32.736Z)
Latitude
Longitude
160.96284°
Altitude
3,641.052 km
Speed
5.713 km/s
True Right ascension
13h 45m 31s
True Declination
0° 00' 00"
Sunlit
Object was in daylight at epoch
Visualization orbit readout
Latitude
Unknown
Longitude
Unknown
Altitude
Unknown
Speed
Unknown
Apparent Right ascension
Unknown
Apparent Declination
Unknown
Sunlit
N/A
Visualization observer readout
Local Sidereal Time
22:30:35
Azimuth
Unknown
Elevation
Unknown
Doppler factor
Unknown
Orbital elements
Apogee altitude
3,746.235 km
Perigee altitude
476.946 km
Semi-major axis
8,489.728 km
Eccentricity
0.19254
Inclination
51.5569°
RAAN
206.3819°
Arg. of periapsis
163.0014°
True anomaly
197.07553°
Mean anomaly
204.5749°
Eccentric anomaly
200.67914°
Mean motion
2.77461 °/min
Orbital period
129.75 mins
BSTAR
0.0034388
Loading maneuver chart data...
Computing Atmospheric mass density...
Loading historical data...
Loading historical data...
Loading historical data...
Loading historical data...
Loading historical data...
Loading historical data...
Loading historical data...

Documentation

Showing up to 5 results
|